Volver al catálogo

SL-12 R/B(2)

ActivoGEO
NORAD 22883·ROCKET BODY·🇷🇺 Russia

Lanzado Oct 28, 1993 desde Baikonur Cosmodrome

Loading…

TLE

ActualizadoSource: Space-Track

Época: Aug 29, 2026, 04:08 UTC

1 22883U 93069D   26241.17232949 -.00000260  00000-0  00000+0 0  9990
2 22883  13.8260 346.1437 0002850  47.4020 324.5122  1.00477696119803

Sigue SL-12 R/B(2) en tiempo real con AllMySat

Download on the App Store